Location: York
(31.8935°S, 116.7682°E)
Time: 22:52:40
(UTC+08:00)

N. Korean satellite - Visible Passes

Search period start: 15 May 2021 00:00
Search period end: 25 May 2021 00:00
Orbit: 450 x 501 km, 97.2° (Epoch: 14 May)

Date Brightness Start Highest point End Pass type
(mag) Time Alt. Az. Time Alt. Az. Time Alt. Az.
16 May 8.7 05:19:22 10° NNW 05:20:03 15° NNW 05:20:03 15° NNW visible
16 May 9.6 18:23:31 10° SSW 18:25:58 17° WSW 18:28:23 10° WNW visible
17 May 9.0 04:51:59 10° NNE 04:52:38 15° NNE 04:52:38 15° NNE visible
17 May 8.2 17:55:33 10° S 17:59:02 37° WSW 18:02:28 10° NW visible
19 May 8.9 05:31:37 10° NNW 05:31:56 12° NNW 05:31:56 12° NNW visible
19 May 9.8 18:36:21 10° SW 18:37:44 12° WSW 18:39:07 10° W visible
20 May 8.9 05:03:51 10° N 05:04:30 15° N 05:04:30 15° N visible
20 May 8.9 18:07:42 10° SSW 18:10:51 26° WSW 18:13:56 10° NW visible
21 May 9.5 04:36:51 10° NNE 04:37:05 12° NNE 04:37:05 12° NNE visible
23 May 8.9 05:15:49 10° N 05:16:22 14° NNW 05:16:22 14° NNW visible
23 May 9.5 18:20:00 10° SSW 18:22:36 18° WSW 18:25:10 10° WNW visible
24 May 9.3 04:48:29 10° NNE 04:48:55 13° NNE 04:48:55 13° NNE visible
24 May 8.0 17:52:06 10° S 17:55:38 41° WSW 17:59:05 10° NW visible
